This demonstration page uses our WeatherBlox Daily Observations layout. Learn more.

Left ArrowRight Arrow

39.92423, -83.80882

Hourly Observations for June 26, 2015

Temp ( °F °C ) Dew Point ( °F °C ) Humidity (%) Winds ( mph kmh ) Pressure ( in mb ) Visibility ( mi km ) Precip ( " mm )
12:56 am 00:56 Mostly Cloudy 69 20.5 68 20 97 97 Calm 29.97 1015 7 11.26538 0 0
1:56 am 01:56 Mostly Cloudy 69 20.5 68 20 97 97 ENE 3 6 29.94 1014 7 11.26538 0 0
2:56 am 02:56 Mostly Cloudy 69 20.5 69 20.5 100 100 Calm 29.93 1014 8 12.87472 0 0
3:56 am 03:56 Cloudy with Mist and Fog 67 19.4 67 19.4 100 100 ENE 5 7 29.92 1013 4 6.43736 0 0
4:56 am 04:56 Cloudy with Mist and Fog 68 20 68 20 100 100 SE 7 11 29.92 1013 2.5 4.02335 0 0
5:56 am 05:56 Cloudy with Mist and Fog 68 20 68 20 100 100 ESE 5 7 29.93 1014 2.5 4.02335 0 0
6:56 am 06:56 Cloudy with Mist and Fog 69 20.5 69 20.5 100 100 NE 3 6 29.95 1014 1.75 2.816345 0 0
7:31 am 07:31 Cloudy with Mist and Fog 70 21 70 21 100 100 NNE 6 9 29.94 1014 2.5 4.02335 0 0
7:46 am 07:46 Cloudy with Mist and Fog 70 21 70 21 100 100 NE 8 13 29.94 1014 1.5 2.41401 0 0
7:56 am 07:56 Cloudy with Mist and Fog 69 20.5 69 20.5 100 100 NE 6 9 29.96 1015 1.25 2.011675 0 0
8:16 am 08:16 Cloudy with Mist and Fog 70 21 70 21 100 100 ENE 8 13 29.97 1015 1.5 2.41401 0 0
8:35 am 08:35 Cloudy with Mist and Fog 70 21 70 21 100 100 ENE 5 7 29.97 1015 2 3.21868 0 0
8:56 am 08:56 Cloudy with Mist and Fog 71 21.6 71 21.6 100 100 NE 13 20 29.96 1015 4 6.43736 0 0
9:56 am 09:56 Cloudy with Mist and Fog 71 21.6 70 21.1 97 97 ENE 10 17 29.98 1015 4 6.43736 0 0
10:14 am 10:14 Cloudy with Mist and Fog 72 22 70 21 94 94 E 10 17 29.97 1015 4 6.43736 0 0
10:56 am 10:56 Cloudy with Mist and Fog 73 22.7 69 20.5 87 87 E 9 15 29.99 1016 6 9.65604 0 0
11:56 am 11:56 Cloudy 75 23.8 70 21.1 85 85 E 12 19 29.98 1015 7 11.26538 0 0
12:03 pm 12:03 Mostly Cloudy 75 24 70 21 83 83 E 10 17 29.97 1015 7 11.26538 0 0
12:23 pm 12:23 Mostly Cloudy 77 25 70 21 79 79 E 13 20 29.97 1015 8 12.87472 0 0
12:44 pm 12:44 Cloudy 75 24 70 21 83 83 E 10 17 29.97 1015 8 12.87472 0 0
12:56 pm 12:56 Cloudy 75 23.8 69 20.5 82 82 ESE 12 19 29.98 1015 7 11.26538 0 0
1:56 pm 13:56 Cloudy 74 23.3 70 21.1 88 88 E 9 15 29.96 1015 7 11.26538 0 0.0254
2:23 pm 14:23 Partly Cloudy with Mist and Fog 73 23 72 22 94 94 E 7 11 29.94 1014 6 9.65604 0 0.0254
2:56 pm 14:56 Mostly Cloudy with Light Rain 72 22.2 71 21.6 96 96 E 7 11 29.96 1014 3 4.82802 0.01 0.254
3:03 pm 15:03 Mostly Cloudy with Mist and Fog 72 22 72 22 100 100 E 8 13 29.94 1014 3 4.82802 0.01 0.254
3:12 pm 15:12 Mostly Cloudy with Light Rain 72 22 72 22 100 100 ESE 6 9 29.97 1015 3 4.82802 0.02 0.508
3:31 pm 15:31 Cloudy with Rain 72 22 72 22 100 100 NE 7 11 29.94 1014 1.75 2.816345 0.07 1.778
3:34 pm 15:34 Cloudy with Thunderstorms 72 22 72 22 100 100 ENE 8 13 29.94 1014 1.25 2.011675 0.08 2.032
3:48 pm 15:48 Cloudy with Rain 72 22 72 22 100 100 E 3 6 29.97 1015 1 1.60934 0.16 4.064
3:56 pm 15:56 Mostly Cloudy with Rain 71 21.6 71 21.6 100 100 E 7 11 29.96 1015 1.25 2.011675 0.19 4.826
4:03 pm 16:03 Mostly Cloudy with Light Rain 72 22 72 22 100 100 ENE 3 6 29.97 1015 1.5 2.41401 0.02 0.508
4:19 pm 16:19 Mostly Cloudy with Light Rain 72 22 72 22 100 100 ENE 9 15 29.94 1014 2.5 4.02335 0.03 0.762
4:28 pm 16:28 Mostly Cloudy with Light Rain 72 22 72 22 100 100 ENE 8 13 29.94 1014 3 4.82802 0.04 1.016
4:42 pm 16:42 Mostly Cloudy with Light Rain 72 22 72 22 100 100 E 7 11 29.97 1015 6 9.65604 0.04 1.016
4:56 pm 16:56 Mostly Cloudy with Mist and Fog 72 22.2 72 22.2 100 100 E 8 13 29.97 1015 4 6.43736 0.04 1.016
5:02 pm 17:02 Mostly Cloudy with Light Rain 72 22 72 22 100 100 E 7 11 29.94 1014 2.5 4.02335 0.02 0.508
5:10 pm 17:10 Cloudy with Heavy Rain 72 22 72 22 100 100 ENE 7 11 29.94 1014 1.25 2.011675 0.07 1.778
5:19 pm 17:19 Cloudy with Rain 72 22 72 22 100 100 NE 8 13 29.94 1014 1 1.60934 0.14 3.556
5:28 pm 17:28 Cloudy with Rain 72 22 72 22 100 100 NE 12 19 29.94 1014 1.25 2.011675 0.18 4.572
5:35 pm 17:35 Mostly Cloudy with Rain 72 22 72 22 100 100 ENE 8 13 29.94 1014 1.75 2.816345 0.2 5.08
5:43 pm 17:43 Cloudy with Light Rain 72 22 72 22 100 100 NE 6 9 29.94 1014 2 3.21868 0.22 5.588
5:56 pm 17:56 Cloudy with Rain 71 21.6 71 21.6 100 100 E 8 13 29.93 1014 1.75 2.816345 0.26 6.604
6:11 pm 18:11 Cloudy with Light Rain 72 22 72 22 100 100 ENE 6 9 29.94 1014 2 3.21868 0.05 1.27
6:25 pm 18:25 Cloudy with Light Rain 72 22 72 22 100 100 NE 7 11 29.94 1014 3 4.82802 0.06 1.524
6:31 pm 18:31 Cloudy with Light Rain 72 22 72 22 100 100 ENE 12 19 29.94 1014 2.5 4.02335 0.09 2.286
6:34 pm 18:34 Cloudy with Heavy Rain 70 21 70 21 100 100 E 15 24 29.94 1014 1.25 2.011675 0.14 3.556
6:40 pm 18:40 Mostly Cloudy with Light Rain 70 21 70 21 100 100 E 13 20 29.94 1014 1.25 2.011675 0.15 3.81
6:43 pm 18:43 Cloudy with Light Rain 70 21 70 21 100 100 ENE 14 22 29.91 1013 2 3.21868 0.15 3.81
6:49 pm 18:49 Cloudy with Light Rain 68 20 68 20 100 100 E 12 19 29.91 1013 4 6.43736 0.15 3.81
6:56 pm 18:56 Cloudy with Light Rain 68 20 68 20 100 100 ENE 6 9 29.95 1014 5 8.0467 0.15 3.81
7:03 pm 19:03 Mostly Cloudy with Rain 68 20 68 20 100 100 ENE 9 15 29.91 1013 2.5 4.02335 0.04 1.016
7:11 pm 19:11 Cloudy with Light Rain 68 20 66 19 94 94 E 12 19 29.91 1013 1.75 2.816345 0.06 1.524
7:16 pm 19:16 Cloudy with Light Rain 66 19 66 19 100 100 E 12 19 29.91 1013 3 4.82802 0.06 1.524
7:46 pm 19:46 Cloudy with Light Rain 66 19 66 19 100 100 E 13 20 29.91 1013 5 8.0467 0.07 1.778
7:56 pm 19:56 Cloudy with Light Rain 67 19.4 67 19.4 100 100 ESE 13 20 29.91 1013 4 6.43736 0.07 1.778
8:12 pm 20:12 Mostly Cloudy with Light Rain 66 19 66 19 100 100 ESE 13 20 29.88 1012 2.5 4.02335 0.03 0.762
8:19 pm 20:19 Mostly Cloudy with Light Rain 66 19 66 19 100 100 E 13 20 29.88 1012 3 4.82802 0.03 0.762
8:27 pm 20:27 Mostly Cloudy with Light Rain 66 19 66 19 100 100 ESE 12 19 29.88 1012 6 9.65604 0.03 0.762
8:35 pm 20:35 Mostly Cloudy 66 19 64 18 94 94 E 10 17 29.88 1012 8 12.87472 0.03 0.762
8:56 pm 20:56 Mostly Sunny 66 18.8 66 18.8 100 100 E 9 15 29.88 1012 8 12.87472 0.03 0.762
9:25 pm 21:25 Mostly Cloudy 66 19 66 19 100 100 E 9 15 29.85 1011 7 11.26538 0 0
9:34 pm 21:34 Mostly Cloudy 66 19 66 19 100 100 E 10 17 29.85 1011 7 11.26538 0 0
9:56 pm 21:56 Mostly Cloudy with Mist and Fog 69 20.5 69 20.5 100 100 E 12 19 29.85 1011 6 9.65604 0 0
10:56 pm 22:56 Cloudy 70 21.1 70 21.1 100 100 ESE 13 20 29.88 1012 7 11.26538 0 0
11:23 pm 23:23 Cloudy with Mist and Fog 70 21 70 21 100 100 SE 12 19 29.88 1012 6 9.65604 0 0
11:36 pm 23:36 Cloudy 70 21 68 20 94 94 SE 13 20 29.88 1012 8 12.87472 0 0
11:56 pm 23:56 Cloudy with Light Rain 69 20.5 67 19.4 93 93 SE 12 19 29.87 1012 7 11.26538 0 0.0254

Powered by AerisWeather